Weather History for Jordan, MT

Change the Weather History Date:

Monday, March 4, 2013

  Actual Average Record
Temperature  
Mean Temperature 16 °F 28 °F  
Max Temperature 29 °F 41 °F 70 °F (1987)
Min Temperature 3 °F 16 °F -31 °F (1960)
Degree Days  
Heating Degree Days 49 37  
Month to date heating degree days 118 149  
Since 1 July heating degree days 5576 6267  
Cooling Degree Days 0 0  
Month to date cooling degree days 0 0  
Year to date cooling degree days 0 0  
Moisture  
Dew Point 13 °F    
Average Humidity 82    
Maximum Humidity 96    
Minimum Humidity 67    
Precipitation  
Precipitation 0.16 in 0.01 in 0.20 in (1908)
Month to date precipitation 0.26 0.04  
Year to date precipitation 0.66 0.52  
Snow  
Snow 0.00 in - - ()
Month to date snowfall 0.0  
Since 1 July snowfall 0.0  
Snow Depth 0.00 in    
Sea Level Pressure  
Sea Level Pressure 30.22 in    
Wind  
Wind Speed 19 mph (NW)    
Max Wind Speed 36 mph    
Max Gust Speed 43 mph    
T = Trace of Precipitation, MM = Missing Value Source: NWS Daily Summary

Daily Weather History Graph

Daily Weather History Graph

Search for Another Location

Airport:

Trip Planner

Search our weather history database for the weather conditions in past years. The results will help you decide how hot, cold, wet, or windy it might be!

Date:

Astronomy

Mar. 04, 2013 Rise Set
Actual Time 6:41 AM MST 5:57 PM MST
Civil Twilight 6:11 AM MST 6:28 PM MST
Nautical Twilight 5:35 AM MST 7:04 PM MST
Astronomical Twilight 5:00 AM MST 7:39 PM MST
Moon 1:11 AM MST (3/4) 10:24 AM MST (3/4)
Length of Visible Light 12h 17m
Length of Day
11h 16m
Waning Gibbous, 51% of the Moon is Illuminated
Mar 4
Waning Gibbous
Mar 4
Last Quarter
Mar 11
New
Mar 19
First Quarter
Mar 27
Full

Hourly Weather History & Observations

Time (MST) Temp. Windchill Dew Point Humidity Pressure Visibility Wind Dir Wind Speed Gust Speed Precip Events Conditions
12:48 AM 28.9 °F 17.3 °F 23.0 °F 78% 29.74 in - West 16.1 mph - N/A   Unknown
1:48 AM 28.0 °F 13.9 °F 23.0 °F 81% 29.76 in - NW 23.0 mph 33.4 mph N/A   Unknown
2:48 AM 26.1 °F 12.7 °F 21.0 °F 81% 29.84 in - NNW 18.4 mph 32.2 mph N/A   Unknown
3:48 AM 24.1 °F 9.4 °F 19.9 °F 84% 29.88 in - NNW 20.7 mph 26.5 mph 0.02 in   Unknown
4:48 AM 21.0 °F 2.7 °F 17.1 °F 85% 29.94 in - NNW 29.9 mph 38.0 mph 0.01 in   Unknown
5:48 AM 19.9 °F 1.0 °F 16.0 °F 85% 30.00 in - NNW 31.1 mph 38.0 mph 0.03 in   Unknown
6:48 AM 19.9 °F 2.5 °F 16.0 °F 85% 30.04 in - NNW 25.3 mph 35.7 mph 0.03 in   Unknown
7:48 AM 19.0 °F 0.3 °F 15.1 °F 85% 30.10 in - NNW 28.8 mph 36.8 mph 0.02 in   Unknown
8:48 AM 19.0 °F 0.6 °F 15.1 °F 85% 30.14 in - NNW 27.6 mph 35.7 mph 0.02 in   Unknown
9:48 AM 19.0 °F 1.3 °F 15.1 °F 85% 30.20 in - NNW 25.3 mph 31.1 mph 0.02 in   Unknown
10:48 AM 19.9 °F 3.2 °F 15.1 °F 81% 30.24 in - NNW 23.0 mph 35.7 mph 0.01 in   Unknown
1:48 PM 21.9 °F 5.1 °F 14.0 °F 72% 30.32 in - NNW 25.3 mph 31.1 mph N/A   Unknown
2:48 PM 21.9 °F 5.1 °F 15.1 °F 75% 30.34 in - NW 25.3 mph 32.2 mph N/A   Unknown
3:48 PM 21.9 °F 5.1 °F 15.1 °F 75% 30.38 in - NW 25.3 mph 32.2 mph N/A   Unknown
4:48 PM 21.0 °F 6.6 °F 14.0 °F 74% 30.43 in - NNW 17.3 mph - N/A   Unknown
5:48 PM 19.0 °F 4.0 °F 10.9 °F 71% 30.44 in - NNW 17.3 mph - N/A   Unknown
6:48 PM 14.0 °F 2.9 °F 8.1 °F 77% 30.49 in - NW 8.1 mph - N/A   Unknown
7:48 PM 8.1 °F 1.4 °F 3.9 °F 83% 30.51 in - WNW 3.5 mph - N/A   Unknown
8:48 PM 5.0 °F -2.1 °F 3.0 °F 92% 30.51 in - SSW 3.5 mph - N/A   Unknown
9:48 PM 8.1 °F -0.5 °F 5.0 °F 87% 30.52 in - WSW 4.6 mph - N/A   Unknown
10:48 PM 9.0 °F -0.9 °F 5.0 °F 84% 30.51 in - WNW 5.8 mph - N/A   Unknown
11:48 PM 7.0 °F 0.1 °F 1.9 °F 80% 30.51 in - WNW 3.5 mph - N/A   Unknown